This demonstration page uses our WeatherBlox Daily Observations layout. Learn more.

Left ArrowRight Arrow

Hourly Observations for October 7, 2019

Temp ( °F °C ) Dew Point ( °F °C ) Humidity (%) Winds ( mph kmh ) Pressure ( in mb ) Visibility ( mi km ) Precip ( " mm )
12:53 am 00:53 Mostly Cloudy 72 22.2 63 17.2 73 73 E 7 11 30.12 1020 10 16 0.00 0.00
1:53 am 01:53 Clear 69 20.6 63 17.2 81 81 Calm 30.11 1020 10 16 0.00 0.00
2:53 am 02:53 Clear 69 20.6 63 17.2 81 81 Calm 30.12 1020 10 16 0.00 0.00
3:53 am 03:53 Mostly Cloudy 68 20 63 17.2 84 84 ENE 3 6 30.11 1020 10 16 0.00 0.00
4:53 am 04:53 Mostly Clear 68 20 63 17.2 84 84 ENE 5 7 30.09 1019 10 16 0.00 0.00
5:53 am 05:53 Mostly Clear 67 19.4 63 17.2 87 87 Calm 30.08 1019 10 16 0.00 0.00
6:53 am 06:53 Clear 65 18.3 62 16.7 90 90 Calm 30.08 1019 10 16 0.00 0.00
7:53 am 07:53 Sunny 64 17.8 62 16.7 93 93 Calm 30.09 1019 10 16 0.00 0.00
8:53 am 08:53 Cloudy 68 20 64 17.8 87 87 NE 3 6 30.10 1019 10 16 0.00 0.00
9:20 am 09:20 Mostly Cloudy 70 21.1 64 17.8 82 82 NE 3 6 30.09 1019 10 16 0.00 0.00
9:53 am 09:53 Mostly Cloudy 72 22.2 63 17.2 73 73 E 6 9 30.11 1020 10 16 0.00 0.00
10:53 am 10:53 Cloudy 75 23.9 64 17.8 69 69 ENE 6 9 30.11 1020 10 16 0.00 0.00
10:55 am 10:55 Mostly Cloudy 75 23.9 64 17.8 69 69 ENE 6 9 30.10 1019 10 16 0.00 0.00
11:53 am 11:53 Mostly Cloudy 75 23.9 64 17.8 69 69 NNE 5 7 30.10 1019 10 16 0.00 0.00
12:00 pm 12:00 Cloudy 75 23.9 64 17.8 69 69 NNE 5 7 30.10 1019 10 16 0.00 0.00
12:53 pm 12:53 Cloudy 79 26.1 65 18.3 62 62 NNW 8 13 30.08 1019 10 16 0.00 0.00
1:53 pm 13:53 Cloudy 76 24.4 64 17.8 67 67 N 7 11 30.06 1018 10 16 0.00 0.00
2:53 pm 14:53 Cloudy 77 25 63 17.2 62 62 VRB 3 6 30.03 1017 10 16 0.00 0.00
3:53 pm 15:53 Cloudy 78 25.6 63 17.2 60 60 ENE 3 6 30.01 1016 10 16 0.00 0.00
4:53 pm 16:53 Partly Cloudy 80 26.7 62 16.7 54 54 ENE 3 6 29.99 1016 10 16 0.00 0.00
5:53 pm 17:53 Mostly Sunny 78 25.6 62 16.7 58 58 NW 3 6 29.99 1016 10 16 0.00 0.00
6:53 pm 18:53 Mostly Sunny 76 24.4 62 16.7 62 62 NNW 3 6 29.99 1016 10 16 0.00 0.00
7:53 pm 19:53 Mostly Cloudy 74 23.3 59 15 60 60 N 6 9 30.00 1016 10 16 0.00 0.00
8:53 pm 20:53 Partly Cloudy 72 22.2 59 15 64 64 NNW 3 6 30.01 1016 10 16 0.00 0.00
9:53 pm 21:53 Mostly Cloudy 71 21.7 60 15.6 68 68 WNW 3 6 30.03 1017 10 16 0.00 0.00
10:53 pm 22:53 Partly Cloudy 69 20.6 60 15.6 73 73 Calm 30.03 1017 10 16 0.00 0.00
11:53 pm 23:53 Clear 68 20 61 16.1 78 78 Calm 30.02 1017 10 16 0.00 0.00

Powered by AerisWeather